{"data":{"norad_id":64959,"epoch":"2026-05-25T04:33:41.748192Z","epoch_age_seconds":51948,"freshness":"FRESH","line1":"1 64959U 25159D   26145.19006653  .00000055  00000+0  94263-4 0  9990","line2":"2 64959  86.4943 290.2437 0001894  97.8494 262.2855 13.24406199 40080","mean_motion":13.24406199,"eccentricity":0.0001894,"inclination_deg":86.4943,"raan_deg":290.2437,"arg_perigee_deg":97.8494,"mean_anomaly_deg":262.2855,"bstar":9.4263e-5,"rev_number":4008,"period_min":108.72797190826,"perigee_km":1166.5073972282,"apogee_km":1169.3658499168,"semimajor_km":7546.0736235725,"source":"CELESTRAK","updated_at":"2026-05-25T13:38:04.941818Z"}}